Northport, AL

5:56 AM CDT on July 25, 2016 (GMT -0500)
Tuscaloosa Municipal

Weather History for KTCL - March, 2013

Change the Weather History Date:

Monday, March 4, 2013

  Actual Average Record
Temperature  
Mean Temperature 49 °F 53 °F  
Max Temperature 68 °F 65 °F 83 °F (1976)
Min Temperature 29 °F 41 °F 19 °F (2002)
Degree Days  
Heating Degree Days 16 12  
Month to date heating degree days 93 49  
Since 1 July heating degree days 1945 2139  
Moisture  
Dew Point 32 °F    
Average Humidity 56    
Maximum Humidity 85    
Minimum Humidity 26    
Precipitation  
Precipitation 0.00 in 0.16 in 1.39 in (2008)
Month to date precipitation 0.00 0.66  
Year to date precipitation 10.77 11.33  
Sea Level Pressure  
Sea Level Pressure 30.06 in    
Wind  
Wind Speed 9 mph (SSE)    
Max Wind Speed 20 mph    
Max Gust Speed 33 mph    
Visibility 10 miles    
Events      
T = Trace of Precipitation, MM = Missing Value Source: NWS Daily Summary

Daily Weather History Graph

Daily Weather History Graph

Search for Another Location

Airport or City:

Trip Planner

Search our weather history database for the weather conditions in past years. The results will help you decide how hot, cold, wet, or windy it might be!

Date:

Astronomy

Mar. 04, 2013 Rise Set
Actual Time 6:14 AM CST 5:50 PM CST
Civil Twilight 5:49 AM CST 6:14 PM CST
Nautical Twilight 5:21 AM CST 6:43 PM CST
Astronomical Twilight 4:52 AM CST 7:12 PM CST
Moon 12:11 AM CST (3/4) 10:44 AM CST (3/4)
Length of Visible Light 12h 25m
Length of Day
11h 35m
Waning Gibbous, 52% of the Moon is Illuminated
Mar 4
Waning Gibbous
Mar 4
Last Quarter
Mar 11
New
Mar 19
First Quarter
Mar 27
Full

Hourly Weather History & Observations

Time (CST) Temp. Windchill Dew Point Humidity Pressure Visibility Wind Dir Wind Speed Gust Speed Precip Events Conditions
12:53 AM 32.0 °F - 25.0 °F 75% 30.15 in 10.0 mi Calm Calm - N/A   Mostly Cloudy
1:53 AM 32.0 °F - 26.1 °F 79% 30.15 in 10.0 mi Calm Calm - N/A   Clear
2:53 AM 30.9 °F 26.2 °F 26.1 °F 82% 30.14 in 10.0 mi NNE 4.6 mph - N/A   Clear
3:53 AM 30.0 °F - 25.0 °F 82% 30.14 in 10.0 mi Calm Calm - N/A   Clear
4:53 AM 30.9 °F - 25.0 °F 79% 30.15 in 10.0 mi Calm Calm - N/A   Clear
5:53 AM 30.0 °F - 25.0 °F 82% 30.17 in 10.0 mi Calm Calm - N/A   Clear
6:53 AM 30.9 °F 26.2 °F 27.0 °F 85% 30.17 in 10.0 mi ENE 4.6 mph - N/A   Clear
7:53 AM 41.0 °F 36.4 °F 25.0 °F 53% 30.17 in 10.0 mi ESE 6.9 mph - N/A   Clear
8:53 AM 46.9 °F - 23.0 °F 39% 30.16 in 10.0 mi SE 5.8 mph - N/A   Clear
9:53 AM 54.0 °F - 28.0 °F 37% 30.14 in 10.0 mi South 6.9 mph - N/A   Clear
10:53 AM 57.9 °F - 27.0 °F 31% 30.12 in 10.0 mi South 9.2 mph - N/A   Clear
11:53 AM 63.0 °F - 28.0 °F 27% 30.08 in 10.0 mi South 12.7 mph 19.6 mph N/A   Clear
12:53 PM 64.0 °F - 28.9 °F 27% 30.03 in 10.0 mi South 11.5 mph 21.9 mph N/A   Clear
1:53 PM 66.0 °F - 30.9 °F 27% 30.00 in 10.0 mi South 16.1 mph 24.2 mph N/A   Clear
2:53 PM 66.9 °F - 32.0 °F 27% 29.97 in 10.0 mi South 19.6 mph 27.6 mph N/A   Clear
3:53 PM 66.9 °F - 34.0 °F 30% 29.95 in 10.0 mi South 18.4 mph 26.5 mph N/A   Clear
4:53 PM 66.0 °F - 36.0 °F 33% 29.92 in 10.0 mi South 12.7 mph 28.8 mph N/A   Clear
5:53 PM 64.0 °F - 37.0 °F 37% 29.92 in 10.0 mi South 15.0 mph - N/A   Clear
6:53 PM 62.1 °F - 39.0 °F 43% 29.94 in 10.0 mi South 16.1 mph 26.5 mph N/A   Clear
7:53 PM 60.1 °F - 42.1 °F 51% 29.96 in 10.0 mi South 13.8 mph - N/A   Clear
8:53 PM 60.1 °F - 44.1 °F 55% 29.96 in 10.0 mi South 17.3 mph 23.0 mph N/A   Mostly Cloudy
9:53 PM 62.1 °F - 45.0 °F 53% 29.97 in 10.0 mi South 12.7 mph - N/A   Overcast
10:53 PM 59.0 °F - 46.0 °F 62% 29.98 in 10.0 mi South 9.2 mph - N/A   Overcast
11:53 PM 57.9 °F - 46.9 °F 67% 29.99 in 10.0 mi South 8.1 mph - N/A   Overcast